User: anonymous   Login
Location: New Frontier Mobile Home Park
(32.8448°N, 116.9675°W)
Time: 21:23:31
(UTC+00:00)
Language:

CZ-4C R/B - Orbit

View from above orbital plane
View from above orbital plane
View from above satellite
View from above satellite

Ground track
Ground track

The orbit data is extracted from the following two-line orbital elements,

1 32290U 07055B   20269.78027627 +.00002686 +00000-0 +68437-4 0  9995
2 32290 097.6636 069.6548 0060358 176.2912 183.8792 15.38689484715538
Epoch (UTC): 25 September 2020 18:43:35
Eccentricity: 0.0060358
inclination: 97.6636°
perigee height: 409 km
apogee height: 491 km
right ascension of ascending node: 69.6548°
argument of perigee: 176.2912°
revolutions per day: 15.38689484
mean anomaly at epoch: 183.8792°
orbit number at epoch: 71553

The dashed part of the orbit path shows where the satellite is in the earth's shadow,  

DLR